Orbital Elements at Epoch 2459200.5 (2020-Dec-17.0) TDB
Reference: JPL 14 (heliocentric ecliptic J2000)
Element | Value | Uncertainty (1-sigma) | Units |
e | .1669753588800074 | 5.2044e-08 | |
a | 3.139486531816113 | 2.678e-08 | au |
q | 2.615269641467167 | 1.7355e-07 | au |
i | 7.42812907369929 | 6.1111e-06 | deg |
node | 157.4265410432297 | 5.0454e-05 | deg |
peri | 129.3014803620117 | 5.5806e-05 | deg |
M | 350.6946405231083 | 2.3128e-05 | deg |
tp | 2459253.019068862089 (2021-Feb-07.51906886) | 0.00013057 | TDB |
period | 2031.825297808647 5.56 | 2.5997e-05 7.118e-08 | d yr |
n | .1771805875181617 | 2.267e-09 | deg/d |
Q | 3.663703422165058 | 3.1251e-08 | au |
|
| | Orbit Determination Parameters
Additional Information
|